ハリントン彗星

51P/Harrington (2001)

English version
Home page
Total 6,336 html files since Dec. 4, 1995
Updated on October 26, 2008

---------------------------------------------------------------------

・ プロフィール

・ 軌道要素

Epoch 2001 June 20.0 TT = JDT 2452080.5
T 2001 June 5.74358 TT                                  MPC
q   1.5680775            (2000.0)            P               Q
n   0.14560177     Peri.  233.59816     +0.98406617     +0.11979255
a   3.5784225      Node   119.18104     -0.07124062     +0.94270692
e   0.5617964      Incl.    8.65535     -0.16290656     +0.31137342
P   6.77
From 420 observations 1994-2008, mean residual 0".8.  Nongravitational
   parameters A1 = +4.54, A2 = +0.0320.

・ 星図

・ 光度変化

        m1 =  7.6 + 5 logΔ + 30.0 log r  [   ,110]  (              〜2001年 9月23日)
        m1 =  4.7 + 5 logΔ + 30.0 log r  [110,130]  (2001年 9月23日〜2001年10月13日)
        m1 = -7.5 + 5 logΔ + 70.0 log r  [130,184]  (2001年10月13日〜2001年12月 6日)
        m1 =  4.0 + 5 logΔ + 30.0 log r  [184,   ]  (2001年12月 6日〜              )

---------------------------------------------------------------------

軌道要素はM.P.E.C. 2008-U53に掲載されたものです。
星図は StellaNavigator Ver.2.0 for Windows (アストロアーツ 編著 / アスキー出版局刊) で作成したものです。
光度グラフはComet for Windowsで作成したものです。

---------------------------------------------------------------------

Copyright(C) 1995-2008 Seiichi Yoshida (comet@aerith.net). All rights reserved.